Tracking 28794 objects as of 19-Apr-2024
HD Live streaming from Space Station
objects crossing your sky now

STARLINK-5477

Track STARLINK-5477 now!
10-day predictions
STARLINK-5477 is classified as:


NORAD ID: 55659
Int'l Code: 2023-021AH
Perigee: 577.0 km
Apogee: 581.5 km
Inclination: 70.0 °
Period: 96.1 minutes
Semi major axis: 6950 km
RCS: Unknown
Launch date: February 17, 2023
Source: United States (US)
Launch site: AIR FORCE WESTERN TEST RANGE (AFWTR)
Your satellite tracking list
Your tracking list is empty




NASA's NSSDC Master Catalog

Two Line Element Set (TLE):
1 55659U 23021AH  24110.34276446 -.00001366  00000-0 -10673-3 0  9990
2 55659  69.9980 102.6843 0003237 265.1811  94.8979 14.98319975 66022
Source of the keplerian elements: AFSPC